Regional Weather Roundup
Issued by NWS Charleston, SC

Current Version | Previous Version | Text Only | Print | Product List | Glossary Off
Versions: 1 2 3 4 5 6 7 8 9 10 11 12 13 14 15 16 17 18 19 20 21 22 23 24 25 26 27 28 29 30 31 32 33 34 35 36 37 38 39 40 41 42 43 44 45 46 47 48 49 50

000
ASUS42 KCHS 270510
RWRCHS

REGIONAL WEATHER ROUNDUP
NATIONAL WEATHER SERVICE CHARLESTON SC
1200 AM EST THU NOV 27 2014

NOTE: "FAIR" INDICATES FEW OR NO CLOUDS BELOW 12,000 FEET WITH NO
SIGNIFICANT WEATHER AND/OR OBSTRUCTIONS TO VISIBILITY.

NOT ALL STATIONS ARE QUALITY CONTROLLED BY THE NATIONAL
WEATHER SERVICE. USE DATA WITH CAUTION...ESPECIALLY
DEWPOINT OBSERVATIONS.

SCZ027-030-031-034>040-042>050-270600-
...SOUTHEAST SOUTH CAROLINA...

CITY           SKY/WX    TMP DP  RH WIND       PRES   REMARKS
N CHARLESTON   CLEAR     46  40  79 W6        30.13R
WATERFRONT PRK   N/A     50 N/A N/A W5          N/A
MOUNT PLEASANT FAIR      48  45  87 W5        30.12S
JOHNS ISLAND   CLEAR     48  48 100 W3        30.14R
PINOPOLIS        N/A     50  45  81 SW8       30.03R
MONCKS CORNER  FAIR      45  45 100 CALM      30.11S
SUMMERVILLE    FAIR      43  43 100 SW3       30.14R
BEAUFORT MCAS  CLEAR     47  37  68 W9        30.14S
BEAUFORT ARPT  FAIR      46  41  81 W7        30.15R
HILTON HEAD IS CLEAR     48  37  66 SW8       30.17R
WALTERBORO     CLEAR     43  43 100 SW6       30.14R
ALLENDALE      FAIR      41  39  93 CALM      30.12S

...SOUTHERN MIDLANDS AND PEE DEE...

CITY           SKY/WX    TMP DP  RH WIND       PRES   REMARKS
GEORGETOWN     NOT AVBL
KINGSTREE      NOT AVBL
ORANGEBURG     CLEAR     40  36  86 S6        30.11R WCI  36
BARNWELL         N/A     39  37  93 S3        30.11F
AIKEN          FAIR      41  32  70 SW6       30.11F
MANNING        NOT AVBL
COLUMBIA       CLEAR     41  34  76 W6        30.08R
SUMTER         CLEAR     42  35  76 SW7       30.07S
FLORENCE       FOG       39  38  96 S6        30.08S VSB 1/2 WCI  35
MYRTLE BEACH   CLEAR     43  39  87 CALM        N/A
N MYRTLE BEACH FOG       41  40  96 CALM      30.10F VSB 1/4

$$

GAZ063-065-086>088-099>101-113>116-118-119-134>141-150-270600-
...SOUTHEAST GEORGIA...

CITY           SKY/WX    TMP DP  RH WIND       PRES   REMARKS
SAVANNAH ARPT  CLEAR     46  35  65 W6        30.16S
HUNTER AAF     CLEAR     44  37  75 W7        30.14S
FORT STEWART   CLEAR     44  36  74 SW6       30.15F
STATESBORO     NOT AVBL
SYLVANIA       CLEAR     44  38  79 SW3       30.14S
CLAXTON        FAIR      39  34  81 CALM      30.16F

...CSRA...CENTRAL AND FAR SOUTHEAST GEORGIA...

CITY           SKY/WX    TMP DP  RH WIND       PRES   REMARKS
THOMSON        CLOUDY    44  37  78 CALM      30.13S
AUGUSTA-BUSH   PTCLDY    38  32  79 CALM      30.10F
AUGUSTA-DANIEL MOCLDY    45  28  51 VRB3      30.10F
SWAINSBORO     FAIR      45  36  70 CALM      30.14S
VIDALIA        CLEAR     43  36  75 SW3       30.15S
HAZLEHURST     FAIR      45  38  75 CALM      30.16R
ALMA           CLEAR     41  36  82 S3        30.17F
WAYCROSS       CLEAR     45  40  83 SW3       30.19S
JESUP          FAIR      41  37  87 CALM      30.18F
BAXLEY         FAIR      45  37  76 CALM      30.17S
BRUNSWICK      CLEAR     46  36  66 W6        30.19S
SAINT SIMONS   CLEAR     48  37  65 W6        30.19S

$$

SCZ027-028-034-036>038-045-046-048>050-GAZ119-141-270600-
...LAKE AND SUPPLEMENTAL COASTAL OBSERVATIONS...

STATION/POSITION TIME  TEMP    WIND        PRES    WAVE   SWELL
                       AIR SEA DIR/SP/G            HT/PER HT/PER/DIR
                 (UTC) (F)     (DEG/KT/KT) (MB)    (FT/S) (FT/S/D)
UPR LAKE MARION  NOT AVBL
WINYAH BAY       0400   45        CALM     1019.0S
LAKE MURRAY      0400   50     250/ 10/ 13 1017.9R
ACE BASIN NERRS  0400   45        CALM     1020.0S
FORT PULASKI     0500   51     240/  8/ 12 1021.7F
SAPELO ISLAND    0400   51     250/  8     1022.0S

$$

ANZ835-935-AMZ111-154-330-350-352-354-370-450-454-472-270600-
...C-MAN AND BUOY OBSERVATIONS...

STATION/POSITION TIME  TEMP    WIND        PRES    WAVE   SWELL
                       AIR SEA DIR/SP/G            HT/PER HT/PER/DIR
                 (UTC) (F)     (DEG/KT/KT) (MB)    (FT/S) (FT/S/D)
FOLLY BEACH CMAN 0400   52     250/  5/  7 1020.4R
BUOY 41004       0500   61 74  260/ 17/ 21 1019.0F   4/ 9   2/ 9
BUOY 41008       0500   58 64  280/ 17/ 21 1021.2R   3/ 4   2/120/10
CAPERS NEARSHORE 0400   56     260/ 16/ 17   N/A
FRIPP NEARSHORE  NOT AVBL


STATION/POSITION TIME  TEMP    WIND        PRES    WAVE   SWELL
                       AIR SEA DIR/SP/G            HT/PER HT/PER/DIR
                 (UTC) (F)     (DEG/KT/KT) (MB)    (FT/S) (FT/S/D)
5E ST. MARYS GA  0500      63                N/A     2/10
FRYING PAN BUOY  0500   54 71  300/ 10/ 14 1019.7F   4/ 9   3/150/ 9
BUOY 41025       0500   48     290/ 17/ 23 1017.6R  10/10   7/160/10
CAPE LOOKOUT NC  0400   45     320/ 12/ 15 1019.0R
BUOY 41002       0412   66 73  300/ 17/ 23 1018.9R  10/ 8   7/230/ 8
BUOY 41010       0500   68 77  320/ 14/ 19 1021.0F   8/ 8   7/350/ 8
ST AUGUSTINE FL  0500   49     300/  8/  9 1023.4R


$$



USA.gov is the U.S. government's official web portal to all federal, state and local government web resources and services.